Weather in Kamianka

Ukraine / Zhytomyr Region     51°10′06″N   27°30′13″E
temp.,
°C
wind,
m/s
gust,
m/s
humid.,
%
clouds,
%
prec.,
mm/h
press.,
hPa
HPBL,
m
20 april, tue
tue2000:00+7ne2379100 0.0 101676
03:00+5ne248942 0.0 101591
06:00+3ne249582 0.0 101469
09:00+6nne2485100 0.0 1014255
12:00+8nne2374100 0.1 1013755
15:00+11n445765 0.3 10111303
18:00+10nne3462100 0.1 10111212
21:00+6n258225 0.2 1012144
21 april, wed
wed2100:00+4nw229012 0.0 101225
03:00+5wnw2385100 0.0 101185
06:00+5wnw2388100 0.1 101175
09:00+7wsw2484100 0.4 1012317
12:00+9sw347295 0.1 1011674
15:00+13wsw3558100 0.8 10101285
18:00+13wsw356478 1.1 10101078
21:00+8sw24835 1.6 101158
22 april, thu
thu2200:00+7sw389285 0.4 1012160
03:00+6sw3109413 0.4 1012244
06:00+5ssw39955 0.0 1013197
09:00+9sw488188 0.0 1013422
12:00+14sw46565 0.4 10131344
15:00+14ssw4566100 1.6 10131054
18:00+11ssw488197 0.9 1013496
21:00+9ssw229369 2.0 101338
23 april, fri
fri2300:00+8wsw259769 1.3 1014178
03:00+7nnw1396100 1.3 1014198
06:00+7nw2396100 0.4 1014177
09:00+3nw4997100 3.8 1016557
12:00+4w2491100 4.6 1017509
15:00+8wsw3767100 4.9 10161438
18:00+9w585819 0.3 10161753
21:00+4w397591 0.3 1018248
24 april, sat
sat2400:00+3w411845 0.0 1019527
03:00+2w4119145 0.0 1019628
06:00+2wnw4108210 0.0 1020833
09:00+3wnw58625 0.0 1021873
12:00+7wnw47405 0.0 10201930
15:00+9w353579 0.0 10192195
18:00+9sw4743100 0.0 10172004
21:00+6w4870100 0.2 1017836